Weather reports worldwide

Advertisment
Weybourne, United Kingdom (3488): temperature & dewpoint: 17.10.2017 03:00:00 - 23.10.2017 03:00:00 (BST)Weybourne, United Kingdom (3488): wind speed & gusts: 17.10.2017 03:00:00 - 23.10.2017 03:00:00 (BST)Weybourne, United Kingdom (3488): wind direction: 17.10.2017 03:00:00 - 23.10.2017 03:00:00 (BST)Weybourne, United Kingdom (3488): reduced air pressure: 17.10.2017 03:00:00 - 23.10.2017 03:00:00 (BST)Weybourne, United Kingdom (3488): visibility: 17.10.2017 03:00:00 - 23.10.2017 03:00:00 (BST)Weybourne, United Kingdom (3488): precipitation: 17.10.2017 03:00:00 - 23.10.2017 03:00:00 (BST)
Date & Time tt [°C] td [°C] ff [km/h] ff [kn] fx [km/h] fx [kn] dd ppp [hPa] vv [km] rr [mm]
23.10.2017 03:00:00 8,3 6,8 28 15 - - SW 1015,4 50 0,0
23.10.2017 02:00:00 8,0 6,4 29 16 - - WSW 1015,0 50 0,0
23.10.2017 01:00:00 8,2 6,5 29 16 - - WSW 1014,8 50 0,0
23.10.2017 00:00:00 8,2 6,3 29 16 - - WSW 1014,6 40 0,0
22.10.2017 23:00:00 8,5 5,7 28 15 - - WSW 1014,6 45 0,0
22.10.2017 22:00:00 9,3 5,6 29 16 46 25 W 1014,0 50 0,0
22.10.2017 21:00:00 9,7 5,8 34 18 46 25 W 1013,3 30 -
22.10.2017 20:00:00 10,2 6,1 34 18 50 27 W 1012,8 30 0,0
22.10.2017 19:00:00 10,6 6,1 35 19 55 30 W 1012,0 35 0,0
22.10.2017 18:00:00 10,9 6,6 44 24 63 34 W 1011,1 45 0,0
22.10.2017 17:00:00 11,1 6,7 46 25 65 35 W 1010,2 30 0,0
22.10.2017 16:00:00 11,5 7,2 44 24 74 40 W 1009,6 45 0,0
22.10.2017 15:00:00 10,9 7,2 48 26 68 37 W 1008,8 45 0,0
22.10.2017 14:00:00 10,0 8,0 50 27 65 35 W 1008,1 17 0,2
22.10.2017 13:00:00 9,9 7,8 44 24 63 34 WSW 1007,5 30 0,8
22.10.2017 12:00:00 9,5 7,7 42 23 65 35 WSW 1007,0 35 0,4
22.10.2017 11:00:00 11,1 6,8 50 27 68 37 W 1006,3 21 0,0
22.10.2017 10:00:00 11,0 6,9 42 23 59 32 WSW 1005,8 45 0,0
22.10.2017 09:00:00 10,3 6,4 42 23 59 32 WSW 1005,3 50 0,0
22.10.2017 08:00:00 10,3 6,3 39 21 57 31 WSW 1004,7 50 0,0
22.10.2017 07:00:00 10,7 6,3 41 22 57 31 WSW 1004,0 45 0,0
22.10.2017 06:00:00 10,8 6,6 35 19 52 28 WSW 1003,6 50 0,0
22.10.2017 05:00:00 10,8 6,7 35 19 54 29 WSW 1003,0 50 0,0
22.10.2017 04:00:00 10,9 7,6 35 19 54 29 WSW 1002,4 50 -
22.10.2017 03:00:00 11,7 9,1 31 17 52 28 WSW 1001,6 50 0,0
22.10.2017 02:00:00 12,2 9,1 34 18 52 28 SW 1000,9 50 0,0
22.10.2017 01:00:00 11,7 9,2 35 19 54 29 SW 1000,1 50 0,0
22.10.2017 00:00:00 11,9 9,3 31 17 52 28 SW 999,6 40 0,0
21.10.2017 23:00:00 12,2 9,0 37 20 59 32 SW 999,0 50 0,0
21.10.2017 22:00:00 12,0 8,6 39 21 61 33 SSW 998,4 40 0,0
21.10.2017 21:00:00 12,6 7,9 35 19 70 38 SSW 998,2 45 0,0
21.10.2017 20:00:00 13,1 7,6 37 20 59 32 SSW 998,0 25 0,0
21.10.2017 19:00:00 13,4 7,5 35 19 55 30 SSW 998,2 22 0,0
21.10.2017 18:00:00 13,7 7,4 34 18 63 34 S 998,1 23 0,0
21.10.2017 17:00:00 14,6 7,7 34 18 61 33 SSW 998,5 29 0,0
21.10.2017 16:00:00 14,8 8,6 34 18 61 33 SSW 998,7 35 0,0
21.10.2017 15:00:00 15,2 8,6 35 19 61 33 SSW 999,0 35 0,0
21.10.2017 14:00:00 15,2 8,2 39 21 65 35 SSW 999,3 27 0,0
21.10.2017 13:00:00 15,9 9,1 39 21 68 37 SSW 999,5 15 0,0
21.10.2017 12:00:00 15,6 9,0 39 21 65 35 SSW 999,9 35 0,0
21.10.2017 11:00:00 14,9 10,1 35 19 57 31 SSW 1000,5 19 0,0
21.10.2017 10:00:00 14,1 10,4 29 16 46 25 S 1000,7 20 0,0
21.10.2017 09:00:00 13,2 10,8 29 16 - - S 1000,8 35 0,0
21.10.2017 08:00:00 13,0 11,0 24 13 - - SSW 1000,6 45 0,0
21.10.2017 07:00:00 13,3 12,4 21 11 - - S 1000,2 45 -
21.10.2017 06:00:00 13,7 13,2 24 13 - - SSW 1000,6 17 -
21.10.2017 05:00:00 13,1 12,8 29 16 46 25 S 1000,2 6 -
21.10.2017 04:00:00 12,6 12,2 29 16 52 28 S 1001,3 27 -
21.10.2017 03:00:00 12,5 11,1 31 17 55 30 S 1002,2 9 -
21.10.2017 02:00:00 12,3 9,7 26 14 - - SSE 1003,4 24 -
21.10.2017 01:00:00 11,3 8,7 26 14 - - SSE 1004,4 35 -
21.10.2017 00:00:00 10,8 7,8 21 11 - - SSE 1005,5 35 -
20.10.2017 23:00:00 10,5 7,2 16 9 - - SSE 1006,4 40 -
20.10.2017 22:00:00 10,2 6,9 18 10 - - S 1007,3 35 -
20.10.2017 21:00:00 10,5 6,9 15 8 - - SW 1007,3 40 0,0
20.10.2017 20:00:00 12,0 7,9 24 13 - - SW 1007,3 50 0,0
20.10.2017 19:00:00 12,9 9,6 31 17 50 27 SW 1006,9 40 0,0
20.10.2017 18:00:00 13,4 10,7 28 15 48 26 SW 1006,0 50 0,0
20.10.2017 17:00:00 14,0 11,4 29 16 50 27 WSW 1005,2 50 0,0
20.10.2017 16:00:00 14,0 11,8 31 17 48 26 WSW 1004,5 35 0,0
20.10.2017 15:00:00 13,9 12,5 29 16 - - WSW 1003,5 40 0,0
20.10.2017 14:00:00 14,4 11,9 26 14 - - WSW 1002,9 50 0,0
20.10.2017 13:00:00 14,5 11,7 24 13 - - W 1002,2 45 0,0
20.10.2017 12:00:00 13,1 11,3 28 15 - - W 1001,4 8 0,0
20.10.2017 11:00:00 12,9 12,2 26 14 - - W 1000,1 35 0,0
20.10.2017 10:00:00 13,0 12,0 18 10 - - SW 998,9 6 0,0
20.10.2017 09:00:00 12,2 11,6 11 6 - - S 997,9 30 0,0
20.10.2017 08:00:00 11,9 11,0 13 7 - - S 997,3 19 0,0
20.10.2017 07:00:00 12,1 10,6 18 10 - - S 997,1 10 0,0
20.10.2017 06:00:00 11,8 10,3 21 11 - - S 997,3 15 0,2
20.10.2017 05:00:00 12,1 10,3 18 10 - - S 997,5 50 0,0
20.10.2017 04:00:00 13,2 11,8 16 9 - - S 997,6 50 0,0
20.10.2017 03:00:00 13,8 12,8 26 14 55 30 S 998,1 35 0,2
20.10.2017 02:00:00 14,0 12,7 26 14 57 31 S 998,3 50 0,2
20.10.2017 01:00:00 15,6 13,2 24 13 - - S 998,8 35 0,0
20.10.2017 00:00:00 15,5 13,3 22 12 - - SSE 999,3 30 0,0
19.10.2017 23:00:00 15,6 13,1 22 12 - - SSE 999,9 50 0,0
19.10.2017 22:00:00 15,8 13,8 21 11 - - SSE 1000,7 17 0,0
19.10.2017 21:00:00 16,1 13,8 22 12 52 28 S 1000,9 17 0,0
19.10.2017 20:00:00 16,2 14,3 26 14 - - S 1001,1 13 0,0
19.10.2017 19:00:00 16,1 14,3 26 14 - - S 1001,0 14 0,0
19.10.2017 18:00:00 16,6 14,2 28 15 - - S 1001,3 24 0,0
19.10.2017 17:00:00 16,5 13,9 29 16 - - S 1001,6 23 0,0
19.10.2017 16:00:00 16,7 14,3 28 15 - - SSE 1001,4 18 0,0
19.10.2017 15:00:00 16,7 14,3 24 13 - - SE 1001,9 13 0,0
19.10.2017 14:00:00 17,0 13,9 28 15 46 25 SE 1003,0 22 0,0
19.10.2017 13:00:00 16,9 15,0 16 9 - - ESE 1004,3 9 0,0
19.10.2017 12:00:00 16,6 15,5 13 7 - - SE 1005,8 4,4 0,0
19.10.2017 11:00:00 15,7 15,5 13 7 - - SE 1006,6 3,2 0,0
19.10.2017 10:00:00 15,2 15,1 8 4 - - SSE 1007,2 1,5 0,0
19.10.2017 09:00:00 14,6 14,5 9 5 - - SSE 1007,3 2,4 0,0
19.10.2017 08:00:00 14,4 14,3 8 4 - - SSE 1007,4 0,6 0,0
19.10.2017 07:00:00 14,4 14,3 8 4 - - S 1007,4 1,9 0,0
19.10.2017 06:00:00 14,4 14,3 9 5 - - SSE 1007,7 1,1 0,0
19.10.2017 05:00:00 14,3 14,2 9 5 - - SSE 1007,9 1,8 0,0
19.10.2017 04:00:00 14,1 14,0 15 8 - - SSE 1008,3 1,4 0,0
19.10.2017 03:00:00 13,8 13,7 15 8 - - S 1009,2 1,2 0,0
19.10.2017 02:00:00 13,6 13,5 15 8 - - S 1009,4 2,1 0,0
19.10.2017 01:00:00 13,2 13,1 8 4 - - SSE 1009,5 2,1 0,0
19.10.2017 00:00:00 13,3 13,2 0 0 - - N 1009,9 0,3 0,0
18.10.2017 23:00:00 13,5 13,3 5 3 - - SE 1010,2 0,9 0,0
18.10.2017 22:00:00 13,5 13,3 5 3 - - SE 1010,8 1,4 0,0
18.10.2017 21:00:00 13,4 13,0 18 10 - - E 1010,7 4,9 0,0
18.10.2017 20:00:00 13,2 12,7 11 6 - - E 1011,1 12 0,0
18.10.2017 19:00:00 13,2 12,7 16 9 - - E 1011,0 9 0,0
18.10.2017 18:00:00 13,2 12,8 18 10 - - E 1011,4 10 0,2
18.10.2017 17:00:00 12,8 12,3 22 12 - - E 1011,6 13 0,0
18.10.2017 16:00:00 12,3 11,7 26 14 - - E 1011,7 12 0,2
18.10.2017 15:00:00 11,9 11,2 24 13 - - ENE 1012,3 18 0,0
18.10.2017 14:00:00 11,4 10,7 22 12 - - ENE 1012,6 17 0,2
18.10.2017 13:00:00 11,2 9,9 22 12 - - ENE 1013,3 50 0,0
18.10.2017 12:00:00 10,8 9,2 18 10 - - ENE 1013,9 50 0,0
18.10.2017 11:00:00 10,4 9,1 18 10 - - ENE 1014,0 15 0,6
18.10.2017 10:00:00 10,4 9,5 11 6 - - ENE 1014,4 9 1,4
18.10.2017 09:00:00 10,0 9,6 9 5 - - ESE 1014,3 12 0,8
18.10.2017 08:00:00 9,7 9,2 5 3 - - SE 1014,5 13 0,6
18.10.2017 07:00:00 9,7 9,0 9 5 - - SE 1014,4 40 0,8
18.10.2017 06:00:00 10,2 8,4 9 5 - - N 1014,6 45 0,4
18.10.2017 05:00:00 10,5 7,2 8 4 - - NE 1014,8 22 0,2
18.10.2017 04:00:00 10,5 8,4 13 7 - - NNW 1015,2 18 0,6
18.10.2017 03:00:00 11,0 8,3 16 9 - - NW 1015,9 45 0,0
18.10.2017 02:00:00 10,7 9,5 8 4 - - W 1016,3 27 0,2
18.10.2017 01:00:00 10,6 9,6 9 5 - - SW 1016,3 18 0,0
18.10.2017 00:00:00 11,2 9,0 11 6 - - SW 1016,6 19 0,0
17.10.2017 23:00:00 11,4 9,0 13 7 - - SSW 1016,6 17 0,0
17.10.2017 22:00:00 11,5 8,9 15 8 - - SSW 1017,0 25 0,0
17.10.2017 21:00:00 11,6 8,9 16 9 - - SSW 1016,6 21 0,0
17.10.2017 20:00:00 10,9 7,9 15 8 - - SSW 1016,4 24 0,0
17.10.2017 19:00:00 12,2 8,5 11 6 - - SSW 1016,4 30 0,0
17.10.2017 18:00:00 13,2 7,6 11 6 - - SW 1016,8 40 0,0
17.10.2017 17:00:00 14,2 8,3 13 7 - - WSW 1016,6 35 0,0
17.10.2017 16:00:00 15,5 7,7 24 13 - - SW 1016,5 35 0,0
17.10.2017 15:00:00 16,1 8,1 31 17 48 26 SW 1016,9 45 0,0
17.10.2017 14:00:00 16,0 7,6 31 17 50 27 WSW 1017,1 23 0,0
17.10.2017 13:00:00 15,5 8,2 34 18 52 28 SW 1017,3 26 0,0
17.10.2017 12:00:00 14,7 8,1 39 21 57 31 SW 1017,2 23 0,0
17.10.2017 11:00:00 13,9 8,3 35 19 55 30 SW 1017,3 26 0,0
17.10.2017 10:00:00 12,8 8,1 31 17 46 25 SW 1017,6 23 0,0
17.10.2017 09:00:00 11,4 7,7 28 15 48 26 SW 1017,4 21 0,0
17.10.2017 08:00:00 10,8 7,4 35 19 50 27 SW 1016,6 26 0,0
17.10.2017 07:00:00 10,9 7,1 34 18 50 27 SW 1016,2 18 0,0
17.10.2017 06:00:00 11,4 6,9 37 20 52 28 SW 1015,8 29 0,0
17.10.2017 05:00:00 11,6 7,0 35 19 57 31 SSW 1015,3 29 0,0
17.10.2017 04:00:00 11,8 7,0 34 18 61 33 SW 1015,3 22 0,0
17.10.2017 03:00:00 12,5 6,7 41 22 59 32 SW 1015,2 25 0,0

tt = temperature
td = dewpoint
ff = wind speed
fx = gusts
dd = wind direction
ppp = reduced air pressure
vv = visibility
rr = precipitation

Next stations